Temp
-1 -1 -2 -2 -2 -2 -2 -2 -2 -2 -2 -2 -2 -2 -1 -1 -1 -0 -1 -0 0 1 1 2 3 3 3 3 -2 3 1 1 -0 -1 1 -2 -3 1 1 3 4 5 4 4 4 3 4 0 2 3 2 0 -0 -2
-2 -2 -2 -2 -2 -2 -2 -2 -2 -2 -2 -2 -2 -2 -2 -1 -1 -1 -1 -1 -0 -0 0 1 2 2 2 1 1 2 2 2 1 -3 -1 -1 1 1 2 3 2 3 3 3 2 1 -0 -1 -1 -2 -1 -1 -2 -3
-2 -2 -2 -2 -2 -2 -2 -2 -2 -2 -2 -2 -2 -2 -2 -2 -1 -1 -1 -1 -1 -1 1 1 3 2 2 2 1 1 1 1 1 1 0 -1 -0 2 2 2 2 2 3 2 2 -0 -1 -2 -2 -2 -2 -3 -4 -4
-2 -2 -2 -2 -2 -3 -2 -2 -2 -3 -2 -2 -2 -2 -2 -2 -2 -1 -2 -1 -1 -1 -1 2 2 2 2 2 1 1 1 1 1 2 2 -2 -1 2 1 2 1 0 1 0 1 -1 -2 -3 -3 -3 -3 -4 -4 -5
-3 -3 -2 -2 -3 -2 -2 -3 -3 -3 -3 -3 -2 -2 -2 -2 -2 -2 -2 -1 -1 -1 -1 -0 2 3 2 2 2 1 1 1 1 1 -2 -2 1 1 1 1 -1 -1 -1 -1 -1 -2 -2 -3 -3 -4 -4 -4 -4 -5
-3 -3 -3 -2 -3 -3 -3 -3 -3 -3 -3 -3 -3 -2 -2 -2 -2 -2 -1 -1 -1 -2 -1 -4 2 2 3 2 2 2 2 1 1 1 0 1 3 2 -2 -1 -2 -2 -2 -2 -3 -3 -3 -3 -4 -4 -5 -5 -5 -5
-3 -2 -3 -3 -3 -3 -3 -3 -3 -3 -3 -3 -2 -3 -3 -3 -3 -3 -2 -2 -2 -2 -1 -1 -0 3 3 2 2 2 1 1 0 0 0 1 3 2 -1 -0 -2 -3 -3 -3 -3 -3 -3 -4 -4 -4 -5 -5 -5 -6
-3 -3 -3 -3 -3 -3 -3 -3 -3 -3 -3 -3 -3 -3 -3 -3 -3 -3 -3 -3 -2 -2 -3 -2 -2 2 2 2 2 1 0 0 0 0 2 1 3 4 -0 -2 -2 -3 -3 -4 -4 -3 -3 -3 -3 -3 -4 -5 -6 -7
-3 -3 -3 -3 -3 -3 -3 -3 -3 -3 -3 -3 -3 -3 -3 -3 -3 -3 -3 -2 -3 -2 -2 -2 -3 -4 1 2 1 1 1 -4 1 -2 0 2 -3 -2 -1 -2 -3 -4 -3 -3 -3 -3 -3 -3 -4 -4 -5 -6 -7 -8
-4 -4 -3 -3 -3 -3 -3 -3 -3 -3 -3 -3 -3 -3 -4 -3 -3 -2 -2 -3 -3 -3 -3 -2 1 -2 2 2 1 1 1 -2 -1 -0 3 -3 -2 -3 -3 -3 -4 -4 -4 -3 -3 -4 -4 -5 -5 -5 -6 -8 -8 -9
-4 -4 -4 -3 -4 -3 -3 -3 -3 -4 -4 -3 -3 -4 -3 -3 -3 -3 -3 -3 -3 -2 -2 -1 1 -1 2 -3 -2 2 -1 -1 1 1 -0 -2 -1 -3 -4 -5 -5 -5 -5 -5 -5 -5 -5 -6 -6 -7 -8 -8 -9 -9
-4 -4 -4 -4 -4 -4 -3 -4 -4 -3 -3 -3 -3 -3 -3 -3 -3 -2 -2 -2 -2 -0 2 1 2 2 2 2 1 1 0 -1 1 1 -0 -2 -3 -4 -5 -6 -6 -6 -6 -6 -7 -7 -7 -7 -8 -8 -9 -9 -9 -10
-4 -4 -4 -4 -4 -4 -4 -4 -4 -3 -3 -3 -3 -3 -3 -2 -1 -3 -4 -2 -3 2 2 3 -2 3 2 2 1 -0 0 -1 1 0 -1 -3 -4 -5 -6 -7 -8 -8 -8 -8 -9 -9 -9 -9 -9 -10 -10 -10 -10 -10
-4 -4 -4 -4 -4 -4 -3 -4 -4 -4 -3 -3 -3 -4 -3 -4 -4 -4 -3 -3 1 2 2 2 1 1 1 -1 -2 -0 -2 0 2 0 -1 -4 -5 -6 -7 -7 -7 -9 -9 -10 -10 -10 -10 -10 -10 -10 -10 -10 -10 -10
-4 -4 -4 -4 -4 -4 -4 -4 -4 -4 -3 -3 -2 -3 -5 -1 -1 -1 -1 0 -0 -1 0 0 -0 1 -0 -1 -1 -1 -1 -0 0 -1 -4 -6 -6 -6 -7 -8 -9 -10 -10 -10 -11 -11 -11 -10 -10 -10 -10 -10 -10 -11
-4 -4 -4 -4 -4 -4 -4 -4 -4 -4 -4 -3 -2 -1 -1 -1 -2 -2 -2 -2 -1 -1 -0 -1 -1 -0 -1 -2 -0 0 1 0 -2 -5 -6 -7 -7 -8 -8 -9 -10 -10 -10 -11 -11 -10 -10 -10 -10 -10 -10 -11 -11 -11
-4 -4 -4 -4 -4 -4 -4 -5 -4 -3 -4 -3 -2 -3 -3 -1 -2 -1 -2 -2 -1 -2 -1 -0 -0 -0 -0 -0 -0 -3 -2 -4 -5 -6 -7 -7 -8 -9 -10 -10 -11 -11 -11 -11 -10 -10 -10 -10 -11 -11 -11 -11 -11 -11
-4 -4 -4 -4 -4 -5 -5 -4 -3 -3 -3 -3 -3 -3 -3 -3 -2 -2 -1 -1 -2 -1 -0 0 -1 -1 -3 -0 -0 -4 -5 -6 -6 -7 -8 -8 -9 -10 -10 -10 -11 -11 -11 -11 -10 -10 -10 -11 -11 -11 -11 -11 -11 -12
-4 -4 -4 -4 -3 -4 -3 -3 -3 -3 -3 -4 -4 -4 -4 -4 -3 -3 -2 -2 -2 -2 -1 -0 -2 -2 -1 -2 -4 -5 -6 -6 -8 -8 -9 -9 -10 -11 -11 -11 -11 -11 -11 -10 -10 -10 -10 -10 -10 -11 -11 -12 -12 -12
-4 -3 -3 -3 -3 -3 -3 -3 -3 -3 -4 -4 -4 -4 -4 -4 -4 -4 -4 -3 -2 -2 -1 -2 -2 -4 -3 -4 -3 -4 -6 -6 -7 -9 -10 -10 -10 -11 -11 -11 -11 -11 -10 -10 -10 -10 -11 -11 -11 -11 -11 -11 -12 -12
-4 -4 -4 -5 -4 -3 -2 -2 -1 -2 -3 -3 -4 -4 -4 -5 -4 -4 -3 -3 -2 -1 -2 -3 -5 -5 -4 -4 -4 -5 -5 -6 -7 -8 -9 -10 -11 -11 -10 -10 -10 -10 -10 -10 -10 -10 -10 -11 -11 -11 -12 -12 -13 -14
-4 -5 -5 -5 -4 -3 -3 -2 -2 -2 -3 -3 -4 -3 -3 -3 -3 -3 -3 -3 -2 -4 -4 -4 -4 -6 -6 -5 -5 -6 -6 -7 -8 -8 -9 -10 -10 -10 -10 -9 -10 -10 -9 -10 -10 -10 -11 -11 -11 -12 -12 -13 -14 -14
-5 -4 -4 -4 -4 -4 -3 -2 -2 -2 -3 -4 -3 -3 -3 -3 -3 -3 -3 -2 -4 -5 -4 -4 -5 -6 -6 -6 -6 -7 -7 -7 -8 -8 -9 -9 -9 -9 -9 -9 -9 -10 -10 -10 -10 -11 -11 -12 -12 -13 -13 -14 -15 -15
-3 -3 -3 -3 -3 -4 -3 -3 -2 -2 -2 -3 -3 -2 -3 -3 -4 -4 -4 -4 -5 -6 -6 -6 -6 -7 -7 -7 -7 -7 -8 -7 -8 -8 -9 -9 -9 -9 -9 -10 -10 -10 -10 -11 -11 -11 -12 -13 -13 -14 -15 -15 -16 -16
-3 -3 -3 -3 -3 -3 -3 -3 -3 -3 -5 -4 -3 -2 -4 -4 -4 -4 -3 -6 -7 -6 -7 -7 -7 -7 -7 -8 -8 -8 -8 -8 -8 -8 -9 -9 -9 -10 -10 -11 -11 -11 -11 -11 -12 -13 -13 -14 -14 -15 -15 -16 -16 -16
-2 -4 -4 -2 -3 -2 -2 -2 -3 -2 -2 -3 -2 -4 -3 -4 -4 -4 -5 -6 -6 -7 -7 -7 -7 -8 -8 -8 -8 -8 -8 -8 -8 -9 -9 -9 -10 -10 -10 -11 -11 -11 -12 -12 -12 -13 -14 -14 -15 -15 -15 -16 -17 -17
-3 -4 -4 -3 -3 -1 -3 -1 -1 -2 -2 -2 -4 -5 -4 -4 -5 -7 -7 -7 -7 -7 -7 -7 -7 -7 -7 -8 -8 -9 -9 -9 -9 -9 -10 -10 -10 -10 -11 -11 -12 -11 -12 -12 -12 -13 -13 -14 -14 -15 -16 -17 -17 -18
-4 -4 -8 -4 -3 -3 -2 -3 -4 -2 -4 -2 -3 -4 -3 -5 -8 -9 -9 -8 -8 -8 -8 -7 -7 -7 -8 -8 -8 -9 -9 -9 -9 -10 -10 -10 -10 -11 -11 -11 -11 -12 -12 -12 -13 -13 -14 -14 -15 -16 -16 -17 -17 -18
-5 -5 -4 -5 -4 -5 -3 -4 -4 -5 -5 -4 -4 -5 -8 -9 -10 -10 -9 -9 -8 -8 -8 -8 -8 -8 -8 -9 -9 -9 -9 -9 -9 -10 -10 -10 -10 -11 -11 -11 -12 -12 -13 -13 -13 -14 -15 -15 -16 -17 -17 -18 -18 -19
-6 -6 -6 -7 -10 -7 -7 -7 -8 -8 -7 -7 -7 -9 -10 -11 -11 -10 -10 -10 -10 -9 -9 -9 -8 -9 -9 -9 -10 -11 -11 -11 -11 -11 -11 -10 -11 -11 -11 -12 -13 -13 -13 -13 -14 -15 -15 -16 -16 -17 -18 -19 -19 -19
-7 -7 -6 -6 -7 -9 -10 -9 -9 -9 -9 -9 -9 -8 -10 -11 -12 -11 -11 -11 -11 -10 -10 -10 -10 -10 -10 -10 -10 -10 -11 -11 -11 -11 -11 -12 -12 -12 -12 -13 -13 -14 -14 -15 -15 -16 -16 -17 -17 -18 -18 -19 -19 -20
-8 -7 -7 -8 -10 -11 -10 -10 -10 -10 -10 -10 -10 -10 -11 -11 -12 -11 -12 -11 -11 -10 -10 -11 -11 -11 -11 -11 -11 -11 -11 -11 -11 -11 -11 -12 -12 -13 -13 -13 -14 -14 -15 -15 -16 -16 -17 -17 -18 -18 -19 -19 -20 -20
-9 -8 -8 -9 -11 -11 -11 -10 -9 -9 -9 -9 -9 -10 -10 -10 -11 -12 -12 -12 -11 -11 -11 -11 -11 -11 -11 -11 -11 -11 -11 -11 -11 -12 -12 -13 -13 -13 -14 -14 -15 -15 -15 -16 -16 -17 -17 -18 -18 -19 -19 -20 -21 -21
Height
1384 1389 1393 1399 1404 1409 1413 1417 1420 1423 1426 1430 1432 1436 1439 1440 1442 1443 1444 1446 1448 1450 1452 1453 1455 1456 1456 1457 1462 1459 1460 1459 1460 1464 1460 1466 1466 1451 1444 1427 1424 1423 1426 1426 1425 1431 1427 1435 1420 1418 1436 1438 1437 1438
1383 1388 1392 1398 1403 1408 1413 1416 1420 1423 1427 1430 1434 1437 1439 1441 1443 1445 1447 1450 1450 1452 1454 1455 1455 1456 1458 1459 1460 1460 1461 1461 1464 1467 1466 1464 1458 1452 1444 1434 1435 1426 1430 1432 1437 1444 1450 1448 1444 1443 1440 1440 1443 1443
1381 1387 1392 1397 1402 1408 1412 1416 1419 1423 1427 1431 1434 1437 1440 1442 1444 1448 1449 1451 1452 1453 1454 1454 1454 1456 1457 1458 1459 1462 1462 1463 1464 1465 1466 1465 1463 1453 1447 1440 1439 1440 1438 1437 1440 1453 1451 1449 1447 1446 1446 1447 1447 1447
1380 1386 1391 1396 1401 1407 1412 1416 1420 1424 1428 1432 1435 1438 1441 1444 1446 1449 1451 1452 1454 1455 1456 1455 1455 1456 1457 1458 1459 1460 1462 1463 1464 1464 1464 1464 1464 1456 1451 1447 1450 1452 1449 1448 1450 1455 1455 1455 1454 1454 1453 1451 1450 1451
1380 1386 1390 1396 1401 1407 1412 1416 1420 1424 1429 1433 1436 1440 1443 1446 1448 1450 1452 1454 1455 1459 1459 1455 1454 1454 1455 1456 1458 1460 1461 1462 1462 1463 1463 1464 1456 1455 1449 1450 1455 1456 1455 1455 1456 1459 1457 1460 1459 1458 1456 1454 1455 1455
1381 1386 1391 1396 1402 1407 1412 1416 1421 1425 1430 1434 1438 1441 1444 1446 1449 1451 1453 1455 1456 1457 1458 1458 1454 1453 1454 1456 1458 1459 1460 1461 1462 1462 1461 1458 1453 1454 1455 1457 1462 1460 1459 1456 1459 1459 1459 1461 1462 1461 1458 1457 1458 1459
1381 1386 1391 1396 1401 1407 1412 1416 1421 1426 1431 1435 1439 1442 1445 1447 1450 1452 1455 1455 1455 1458 1458 1458 1454 1451 1453 1454 1456 1457 1459 1460 1461 1461 1458 1455 1451 1452 1451 1454 1461 1461 1460 1459 1458 1459 1460 1460 1461 1461 1461 1463 1463 1460
1382 1387 1392 1397 1402 1407 1412 1416 1421 1427 1432 1436 1440 1443 1446 1448 1451 1453 1455 1456 1457 1459 1459 1460 1456 1452 1452 1453 1455 1455 1456 1459 1458 1458 1454 1450 1448 1446 1454 1459 1460 1461 1461 1460 1460 1460 1460 1461 1462 1463 1464 1462 1459 1461
1382 1387 1392 1396 1402 1408 1413 1418 1423 1428 1433 1437 1441 1444 1447 1449 1452 1453 1455 1456 1457 1462 1459 1458 1458 1459 1451 1452 1453 1454 1455 1458 1455 1454 1449 1447 1447 1454 1454 1458 1460 1459 1459 1460 1460 1460 1461 1462 1462 1462 1462 1463 1465 1466
1382 1386 1391 1396 1402 1408 1414 1419 1425 1429 1434 1439 1443 1445 1447 1449 1451 1453 1456 1456 1456 1457 1458 1455 1451 1452 1450 1450 1451 1452 1452 1453 1452 1445 1443 1446 1454 1457 1457 1458 1459 1460 1460 1459 1460 1461 1462 1463 1462 1463 1464 1468 1467 1468
1382 1386 1390 1395 1402 1409 1415 1420 1426 1431 1435 1438 1441 1444 1446 1449 1452 1454 1455 1456 1455 1454 1450 1446 1445 1447 1447 1451 1451 1448 1448 1445 1445 1440 1443 1447 1451 1457 1458 1459 1460 1460 1459 1459 1461 1462 1463 1463 1464 1465 1467 1467 1468 1468
1381 1386 1391 1396 1403 1410 1415 1421 1426 1430 1434 1438 1440 1443 1447 1449 1450 1451 1450 1449 1448 1444 1439 1439 1440 1443 1445 1446 1447 1447 1445 1443 1441 1437 1442 1448 1455 1457 1458 1460 1461 1461 1462 1462 1463 1463 1464 1465 1465 1466 1467 1467 1468 1469
1381 1387 1392 1399 1405 1412 1417 1423 1428 1432 1435 1439 1441 1443 1444 1445 1443 1448 1451 1445 1445 1436 1436 1438 1440 1441 1444 1445 1446 1447 1444 1444 1439 1440 1442 1450 1455 1457 1459 1460 1461 1462 1462 1463 1464 1465 1465 1466 1467 1467 1468 1469 1470 1471
1382 1388 1394 1401 1407 1413 1418 1424 1429 1432 1436 1438 1438 1441 1441 1441 1440 1438 1437 1436 1436 1436 1437 1438 1440 1442 1443 1444 1445 1446 1443 1440 1433 1437 1442 1452 1455 1457 1459 1460 1461 1462 1463 1464 1464 1465 1466 1467 1468 1470 1471 1472 1473 1474
1384 1390 1397 1403 1407 1412 1419 1425 1429 1433 1436 1435 1434 1435 1436 1433 1434 1435 1436 1436 1437 1437 1438 1440 1442 1443 1444 1445 1444 1443 1443 1439 1435 1440 1449 1452 1455 1457 1459 1460 1462 1463 1464 1465 1466 1467 1468 1470 1471 1472 1473 1474 1475 1475
1387 1394 1400 1405 1411 1416 1421 1427 1431 1434 1436 1432 1431 1431 1431 1432 1434 1436 1437 1437 1438 1438 1439 1441 1442 1443 1443 1442 1441 1439 1436 1436 1446 1449 1451 1453 1455 1457 1459 1461 1462 1464 1465 1467 1468 1470 1471 1472 1473 1474 1475 1476 1476 1476
1389 1393 1401 1407 1412 1418 1423 1428 1432 1434 1435 1431 1431 1431 1432 1432 1433 1434 1436 1437 1438 1439 1440 1440 1439 1437 1436 1438 1438 1439 1441 1446 1448 1450 1452 1454 1455 1457 1459 1461 1464 1466 1467 1469 1470 1472 1473 1474 1475 1476 1476 1476 1476 1476
1393 1398 1404 1409 1413 1420 1425 1428 1431 1432 1431 1430 1430 1430 1432 1433 1433 1434 1435 1436 1438 1438 1438 1436 1436 1436 1441 1436 1436 1443 1445 1447 1448 1450 1452 1454 1456 1458 1460 1462 1465 1467 1469 1470 1472 1473 1474 1475 1475 1476 1477 1476 1475 1475
1395 1400 1405 1410 1415 1421 1425 1428 1428 1428 1428 1428 1429 1430 1432 1433 1433 1433 1434 1436 1436 1437 1437 1435 1435 1435 1436 1437 1440 1441 1443 1445 1448 1451 1453 1455 1457 1459 1461 1464 1466 1468 1469 1471 1473 1474 1475 1476 1476 1477 1476 1476 1476 1474
1399 1404 1409 1414 1418 1420 1423 1425 1426 1427 1427 1427 1429 1431 1432 1432 1432 1433 1434 1435 1436 1436 1436 1434 1434 1435 1436 1437 1438 1439 1441 1444 1446 1450 1454 1456 1458 1460 1463 1464 1467 1468 1470 1472 1473 1474 1475 1475 1475 1475 1475 1474 1473 1473
1403 1409 1414 1416 1416 1419 1421 1421 1423 1424 1425 1427 1428 1430 1431 1432 1432 1432 1433 1434 1435 1433 1431 1432 1433 1435 1436 1437 1438 1440 1442 1443 1445 1447 1450 1454 1457 1460 1462 1465 1467 1468 1470 1471 1472 1473 1473 1473 1473 1472 1472 1471 1471 1470
1404 1410 1415 1419 1420 1420 1420 1420 1421 1423 1425 1426 1429 1430 1430 1431 1431 1431 1432 1432 1430 1428 1429 1430 1432 1434 1436 1438 1439 1441 1442 1444 1446 1448 1450 1453 1456 1459 1462 1464 1466 1468 1469 1470 1470 1471 1471 1471 1471 1470 1469 1469 1468 1467
1408 1413 1416 1417 1417 1418 1420 1419 1421 1423 1425 1427 1427 1428 1428 1428 1429 1430 1429 1427 1426 1427 1427 1429 1430 1432 1435 1437 1439 1441 1442 1444 1445 1448 1450 1454 1457 1460 1462 1465 1466 1467 1468 1469 1468 1468 1468 1468 1468 1468 1467 1466 1465 1465
1410 1413 1414 1414 1414 1417 1418 1419 1420 1421 1422 1424 1425 1424 1425 1427 1429 1429 1426 1423 1424 1425 1426 1428 1429 1432 1435 1438 1439 1441 1443 1444 1447 1450 1452 1455 1457 1460 1462 1463 1464 1465 1466 1466 1466 1466 1466 1465 1465 1464 1463 1463 1462 1461
1411 1412 1412 1411 1413 1415 1415 1417 1417 1419 1422 1421 1421 1422 1424 1426 1426 1425 1420 1421 1423 1425 1426 1428 1430 1432 1434 1437 1439 1441 1443 1445 1447 1450 1453 1455 1457 1459 1461 1461 1462 1464 1464 1464 1464 1464 1463 1463 1462 1461 1461 1460 1459 1458
1404 1407 1408 1406 1408 1409 1410 1412 1415 1415 1416 1418 1419 1421 1422 1423 1423 1420 1419 1420 1421 1423 1425 1426 1428 1431 1434 1435 1438 1440 1443 1446 1448 1450 1453 1455 1456 1457 1458 1459 1461 1461 1462 1462 1462 1461 1461 1460 1459 1459 1458 1456 1455 1454
1400 1402 1403 1403 1404 1405 1407 1408 1410 1412 1413 1414 1417 1420 1421 1421 1419 1420 1419 1419 1420 1421 1423 1425 1428 1430 1431 1434 1437 1440 1442 1445 1447 1450 1451 1453 1455 1456 1457 1458 1457 1459 1459 1459 1459 1459 1458 1457 1456 1456 1455 1454 1452 1451
1396 1398 1402 1403 1404 1405 1405 1407 1409 1409 1410 1411 1414 1416 1415 1415 1418 1418 1418 1419 1419 1421 1423 1425 1427 1427 1430 1434 1437 1439 1442 1445 1447 1449 1451 1453 1454 1455 1456 1457 1457 1458 1457 1457 1457 1456 1455 1455 1454 1453 1453 1452 1451 1449
1396 1396 1399 1401 1404 1405 1404 1405 1404 1406 1407 1408 1409 1410 1413 1414 1415 1415 1417 1418 1419 1420 1422 1423 1425 1428 1431 1434 1437 1440 1442 1444 1445 1447 1449 1450 1451 1453 1454 1454 1455 1455 1455 1455 1455 1454 1454 1453 1452 1452 1450 1449 1448 1446
1393 1395 1397 1399 1401 1402 1402 1403 1404 1404 1405 1407 1408 1410 1411 1412 1413 1414 1415 1417 1419 1420 1422 1424 1426 1428 1430 1433 1435 1437 1439 1441 1443 1446 1446 1448 1449 1451 1452 1452 1453 1453 1453 1453 1453 1453 1452 1452 1450 1449 1448 1447 1445 1444
1391 1393 1395 1396 1398 1400 1401 1402 1403 1404 1405 1406 1407 1409 1409 1410 1411 1412 1413 1415 1418 1419 1421 1423 1425 1427 1429 1430 1433 1435 1438 1441 1443 1445 1446 1447 1448 1449 1450 1451 1452 1452 1452 1452 1452 1452 1451 1450 1449 1448 1446 1444 1442 1440
1391 1391 1392 1394 1399 1400 1400 1402 1403 1404 1405 1406 1407 1407 1408 1409 1410 1411 1411 1413 1414 1416 1419 1421 1423 1425 1428 1431 1433 1436 1438 1440 1442 1444 1445 1447 1448 1449 1450 1450 1451 1451 1451 1451 1451 1450 1450 1449 1447 1446 1444 1442 1440 1437
1391 1391 1392 1394 1397 1399 1400 1401 1402 1402 1403 1403 1402 1403 1405 1407 1407 1407 1408 1411 1414 1415 1416 1419 1421 1424 1427 1430 1432 1435 1437 1439 1441 1443 1445 1446 1447 1448 1449 1450 1451 1451 1450 1450 1450 1449 1448 1447 1446 1444 1442 1439 1436 1434
Wind_Speed
20 17 19 20 20 19 18 15 12 11 13 12 12 11 10 10 8 7 8 5 7 3 7 6 3 4 4 7 2 8 4 7 5 4 3 3 2 3 4 2 6 3 2 3 4 4 1 27 10 7 6 14 13 14
21 18 18 18 20 23 17 14 13 13 14 13 11 10 8 8 10 8 8 2 5 4 2 2 3 4 3 2 2 5 3 3 3 3 3 2 2 3 8 2 6 3 4 2 5 3 7 12 13 15 14 14 12 13
21 22 19 17 26 22 16 14 15 15 14 13 11 9 7 10 11 7 10 9 7 5 3 0 2 3 2 1 4 1 4 3 3 3 3 2 2 3 3 3 4 10 19 3 4 5 11 15 16 17 16 15 12 12
21 19 19 18 24 19 16 17 16 14 14 12 12 10 11 10 9 8 7 5 3 3 1 1 2 1 2 4 4 3 5 4 5 9 2 2 1 3 3 2 3 4 7 6 5 9 11 14 14 11 13 14 16 14
18 17 17 23 21 19 16 19 15 14 16 13 13 12 10 8 7 6 4 2 3 4 3 6 6 4 8 3 6 7 5 4 3 3 1 2 4 2 3 2 3 7 4 3 3 7 9 7 8 8 15 16 14 14
17 17 18 21 22 19 16 17 18 18 15 14 14 11 8 8 8 6 1 4 7 2 1 2 4 4 6 9 6 7 8 5 3 1 4 4 8 2 1 3 4 5 7 9 4 11 14 11 11 12 15 16 14 13
18 18 21 20 21 19 16 14 18 19 16 14 13 11 9 8 9 2 3 1 5 4 1 4 4 1 9 9 11 9 6 5 4 3 4 4 4 2 1 2 8 4 3 3 5 9 11 8 6 10 15 16 18 19
19 19 18 18 25 21 14 17 21 21 18 16 13 10 9 8 9 4 3 10 10 1 1 1 3 2 5 4 3 7 7 6 5 4 4 4 6 4 3 8 7 5 7 9 11 12 13 9 7 7 11 12 12 12
17 17 18 16 21 21 22 23 21 20 19 17 13 10 7 5 4 5 5 5 4 3 1 3 2 3 4 2 4 5 6 1 6 3 4 2 1 3 5 12 4 2 2 7 8 9 10 11 12 13 14 12 11 11
17 17 19 19 27 24 27 25 22 19 19 16 13 6 5 6 6 6 3 2 1 3 5 4 5 2 7 7 5 3 5 3 2 6 5 2 3 11 11 10 7 4 4 3 9 9 8 10 8 7 9 10 9 8
19 18 15 32 34 26 25 26 23 22 20 16 7 4 5 11 8 4 3 4 5 4 7 8 15 4 5 3 3 4 2 2 2 3 3 2 3 4 12 12 10 10 9 8 9 8 8 8 7 6 6 5 5 4
21 22 21 33 29 25 25 27 26 23 16 13 7 10 16 6 4 4 4 3 4 4 8 6 7 17 4 4 1 3 2 1 3 3 2 1 3 15 14 11 8 7 6 7 6 8 8 8 5 2 2 3 4 6
22 26 27 26 28 25 25 27 23 19 13 11 3 5 5 6 5 5 5 3 1 3 2 4 1 7 4 4 2 2 2 3 0 1 2 2 13 13 12 10 10 7 6 7 7 6 6 7 4 4 8 9 9 9
25 28 30 29 27 26 26 26 24 16 11 4 4 4 3 2 4 3 1 2 1 3 7 8 4 2 2 2 0 2 3 2 3 2 2 3 14 15 14 11 7 6 5 5 5 5 9 8 9 10 11 11 9 8
26 27 25 24 22 25 29 29 24 15 6 4 5 4 4 3 3 3 2 3 2 2 7 6 3 1 1 1 3 2 2 3 3 2 2 14 18 15 12 8 5 7 7 9 11 13 14 12 11 11 10 8 7 6
29 27 25 25 26 27 27 23 16 7 3 4 1 2 0 3 5 2 3 4 4 6 7 3 1 2 4 3 2 3 2 3 1 2 14 16 13 10 9 8 11 11 11 12 13 12 12 11 10 8 7 5 5 5
29 23 28 26 25 27 24 18 9 5 4 2 2 4 1 0 0 5 5 5 6 6 2 2 4 6 1 1 2 3 2 2 12 14 13 11 13 12 11 14 13 12 12 12 12 11 11 10 8 8 8 6 6 8
15 28 29 27 27 23 21 8 6 5 4 3 2 5 5 3 1 4 7 7 6 3 2 1 5 1 3 1 2 3 6 14 13 14 14 12 12 13 14 16 15 13 13 11 10 11 10 8 4 2 5 9 8 8
20 30 30 28 25 17 7 6 3 3 1 3 3 2 3 3 8 5 8 9 10 3 7 3 1 1 2 3 6 13 17 16 18 14 12 9 13 17 17 16 15 13 11 12 10 7 4 2 7 5 1 1 2 3
25 27 24 24 27 6 5 5 6 3 4 6 4 6 3 2 5 7 7 10 8 2 3 2 1 2 3 3 5 10 16 17 17 18 16 15 16 17 17 17 14 12 13 9 8 6 4 2 4 6 5 9 11 10
25 24 23 23 19 3 2 4 5 3 6 4 7 7 2 3 3 5 6 8 6 4 2 3 7 7 6 5 6 8 12 13 12 13 22 21 19 17 18 13 11 11 7 6 4 5 4 3 6 9 11 11 8 10
23 25 19 19 7 4 2 2 4 6 4 5 8 5 3 3 4 5 4 5 4 3 5 8 8 10 10 9 9 10 11 11 12 11 14 19 21 19 15 12 12 8 7 6 5 5 8 9 10 11 10 8 9 8
25 17 7 5 3 2 1 9 3 6 3 5 4 3 2 2 4 7 3 5 3 5 6 7 5 13 14 12 12 13 13 14 16 14 17 18 16 14 13 11 10 10 7 7 9 9 9 10 10 10 9 8 7 7
17 10 6 5 6 3 5 3 4 4 5 3 3 2 4 4 5 2 3 4 7 10 12 14 16 18 15 14 15 16 15 13 14 17 17 18 17 15 12 11 10 10 10 10 10 9 9 9 8 7 6 7 8 8
6 6 4 3 4 5 5 3 3 3 3 3 2 2 2 4 2 3 2 6 12 13 16 16 15 13 16 16 17 16 16 15 20 19 16 14 14 13 13 12 11 10 11 11 8 5 5 7 9 9 9 10 12 12
4 5 4 8 5 4 5 5 5 5 3 4 2 4 4 2 2 4 1 8 11 15 18 19 17 16 17 20 20 18 17 15 18 16 14 13 12 10 12 10 8 7 6 7 8 9 10 11 12 13 12 8 9 11
5 4 4 5 3 4 3 2 6 2 3 4 3 3 2 3 4 2 4 6 8 9 15 18 18 17 22 23 21 19 18 18 18 18 17 15 13 12 12 9 9 7 7 7 7 7 8 10 11 10 8 7 9 12
2 6 5 7 3 3 3 3 3 5 3 6 9 4 4 3 2 4 4 6 11 11 16 15 14 18 22 19 20 21 20 18 16 14 13 13 13 12 11 11 10 9 8 8 6 5 5 5 6 7 8 9 11 11
3 7 9 4 4 3 3 5 3 3 5 4 2 2 3 4 6 6 10 11 13 13 17 17 17 18 20 20 18 17 16 17 16 14 13 12 11 10 10 8 7 6 5 3 2 2 3 4 5 6 7 7 7 8
6 11 4 4 4 4 2 3 3 5 6 7 4 4 4 4 8 8 14 15 13 14 16 18 19 18 18 17 19 21 20 17 15 11 10 8 6 5 5 5 4 3 2 2 3 4 5 6 7 8 9 11 12 13
8 7 5 5 3 3 5 5 4 3 4 7 7 3 7 5 6 12 13 15 16 13 16 18 17 16 17 20 22 21 19 16 14 11 9 8 6 4 4 4 3 2 1 1 3 4 5 6 7 8 9 11 13 15
6 4 5 3 3 4 3 4 4 4 5 5 6 7 5 3 4 8 14 14 16 21 17 17 19 19 19 16 16 15 12 14 14 11 8 7 6 6 5 4 3 2 1 2 4 5 6 8 9 10 12 14 16 18
3 3 5 5 4 4 5 5 6 3 5 5 9 13 11 8 6 10 15 19 17 15 19 21 20 18 17 15 15 13 12 12 10 9 9 8 7 6 5 4 3 2 3 4 5 7 8 9 11 13 14 16 18 20
Wind_Direction
203 204 196 192 186 182 168 168 160 158 167 166 159 157 153 154 144 109 102 96 97 65 52 74 78 43 45 38 80 351 29 360 18 21 1 321 348 298 295 309 338 112 203 200 212 202 351 360 351 49 50 58 67 68
188 182 181 176 184 167 173 175 174 176 168 171 167 165 159 161 156 115 108 117 132 70 256 214 207 219 207 104 21 349 309 47 45 49 16 329 317 293 312 347 8 35 5 53 40 66 48 36 47 44 60 68 73 88
178 184 182 180 176 172 180 178 177 175 176 180 178 161 152 158 164 133 120 84 48 13 4 38 339 128 91 76 188 141 70 82 46 330 201 254 292 343 317 3 335 355 5 60 108 64 53 37 50 55 66 74 79 90
174 178 183 188 175 163 176 177 167 176 173 180 162 155 142 145 159 152 101 112 86 347 308 27 72 300 231 208 245 250 252 294 304 296 266 213 228 287 285 347 41 337 346 342 90 110 102 54 50 63 72 80 87 89
176 181 174 163 161 167 168 168 167 169 170 169 160 158 154 154 159 169 183 157 143 53 347 298 300 222 221 171 182 216 236 243 307 347 22 252 256 12 278 91 40 358 353 22 62 8 111 67 64 82 83 83 77 80
175 176 173 171 167 172 172 173 172 168 161 166 160 161 171 171 175 190 139 216 191 190 332 341 308 197 204 188 207 220 216 208 190 255 260 249 256 234 296 94 84 35 46 55 74 70 97 105 90 82 86 86 85 86
172 173 180 175 175 179 181 184 180 173 171 167 164 164 174 160 155 112 121 105 172 178 341 307 296 342 215 221 223 231 200 202 186 246 237 237 268 139 286 79 121 91 86 59 49 129 89 62 100 90 93 98 99 87
165 168 171 184 182 179 176 166 164 164 166 168 161 163 169 163 173 199 215 88 117 101 46 286 272 249 205 198 192 215 168 195 220 236 260 252 281 220 98 123 138 129 101 88 79 89 94 84 80 99 110 110 91 85
169 171 176 167 174 168 160 154 153 162 171 162 155 157 157 163 163 217 205 257 267 247 263 216 201 247 187 203 200 195 170 156 226 206 245 213 283 60 113 132 132 148 135 126 105 92 94 93 93 92 92 98 103 103
179 178 181 175 171 163 165 155 155 156 155 152 156 155 163 188 178 186 196 196 145 202 223 241 242 268 185 181 206 215 182 219 217 225 204 117 79 107 104 110 114 117 120 155 154 86 119 114 109 101 108 125 126 129
178 181 176 170 166 168 168 165 158 158 158 159 165 157 155 139 149 171 170 197 188 217 216 229 219 206 207 125 209 223 207 244 258 259 133 207 115 123 126 118 114 112 105 102 119 112 122 140 139 133 134 136 132 113
178 177 169 163 160 164 164 162 164 165 166 170 148 127 141 176 182 207 182 217 195 236 193 182 205 200 185 180 163 303 234 99 254 151 93 122 103 128 130 124 121 123 127 116 118 124 131 145 156 160 131 126 126 123
174 177 167 166 167 163 164 168 164 175 166 160 141 151 181 187 202 177 192 240 211 217 146 155 29 154 139 178 142 220 264 232 69 197 154 58 135 137 137 132 120 122 129 133 131 133 140 138 133 126 119 114 113 116
170 174 168 165 170 174 174 168 173 177 161 194 185 190 221 158 244 185 181 176 51 103 134 128 86 88 70 68 203 240 242 249 257 190 93 135 133 137 142 157 156 140 140 135 132 128 130 121 113 111 106 104 105 104
165 165 162 168 167 169 167 172 180 180 189 249 205 206 200 136 105 108 100 115 117 90 134 105 75 133 172 218 211 276 310 251 26 65 92 132 152 156 156 157 146 137 128 121 119 116 115 117 111 107 106 101 96 90
159 158 165 155 155 157 164 169 174 187 246 256 331 160 92 160 146 187 185 167 162 161 137 107 165 182 233 191 171 222 259 27 105 88 130 151 153 162 162 157 139 133 130 128 125 121 114 103 101 99 94 87 79 63
158 158 162 159 165 168 164 166 164 187 250 252 191 203 62 192 279 186 189 166 169 154 178 173 209 213 90 203 229 26 58 96 126 135 152 167 165 163 156 144 143 140 136 134 128 118 115 108 96 77 41 41 54 45
148 158 157 160 157 158 166 154 173 204 233 214 229 163 204 228 198 200 204 185 186 221 221 272 313 152 193 207 115 126 114 128 141 149 157 164 168 162 158 150 146 147 144 140 128 123 119 99 86 68 13 25 16 354
153 161 161 163 164 145 151 192 205 208 136 174 184 168 186 227 217 194 202 205 206 281 303 287 237 250 86 67 118 141 154 157 148 150 153 169 159 147 149 151 151 155 154 138 127 116 103 149 130 138 89 324 308 335
157 165 164 162 164 150 150 173 192 169 177 189 168 174 191 197 202 222 214 204 206 240 249 233 83 103 102 149 188 173 170 173 162 145 147 153 160 159 159 155 157 156 138 138 158 170 125 158 229 259 274 272 259 266
160 164 171 185 194 12 153 171 179 146 143 159 166 161 152 177 178 175 180 180 211 226 189 139 147 145 161 159 169 177 176 181 190 179 169 164 166 163 152 157 164 148 153 162 176 167 199 236 240 281 303 298 297 311
153 162 164 179 207 193 183 131 160 133 117 145 165 192 175 201 188 204 173 205 243 171 168 177 191 179 161 163 166 170 164 157 165 162 166 160 157 160 168 169 160 171 194 178 199 203 215 249 271 290 295 297 305 305
156 160 159 202 171 141 167 147 125 159 141 177 175 176 166 168 175 166 238 229 202 195 196 191 183 163 171 172 170 168 176 177 167 165 160 155 157 166 171 176 184 192 194 214 234 247 260 269 275 286 286 286 300 287
158 174 192 207 189 137 146 177 184 177 138 174 194 201 150 144 161 231 254 158 181 176 172 175 176 165 167 166 164 160 165 175 160 154 157 165 170 170 175 181 193 202 214 212 227 256 272 285 297 315 298 291 297 286
181 181 187 167 170 153 162 175 191 148 192 210 154 158 147 150 187 232 234 150 167 177 179 176 179 190 176 163 166 170 177 175 165 160 162 182 178 170 176 197 211 220 231 236 242 258 282 298 296 298 302 290 288 291
188 181 214 171 176 185 168 165 186 193 154 177 150 105 149 175 227 237 73 166 183 198 198 191 180 174 175 182 174 167 164 179 178 166 164 180 187 203 206 215 224 218 223 241 248 248 257 267 277 288 296 295 295 301
158 169 196 167 169 142 88 120 141 144 171 190 142 139 156 221 233 122 150 143 185 199 194 190 188 189 179 172 176 174 174 176 186 181 178 187 192 198 207 213 229 253 270 286 288 280 271 273 284 296 303 295 296 300
117 156 157 177 153 173 168 154 157 195 184 160 146 177 206 218 191 152 169 163 166 178 188 187 193 188 183 188 189 184 174 181 189 193 196 199 205 207 210 221 235 251 269 284 295 307 308 315 314 310 315 317 316 319
150 155 141 139 140 185 217 194 184 161 153 166 181 148 140 157 156 180 169 153 177 189 187 182 169 178 179 178 181 188 199 194 191 192 194 194 190 191 205 217 231 243 258 278 310 323 336 338 330 329 331 336 337 330
159 162 129 151 155 195 146 168 146 170 176 172 158 132 151 184 193 193 179 175 174 184 191 190 182 182 184 187 177 174 180 187 189 195 193 197 184 184 189 200 215 238 299 340 355 3 355 348 342 342 336 330 322 317
159 161 153 154 136 106 165 200 197 195 181 185 190 194 175 191 179 180 181 188 185 198 200 193 190 195 195 189 186 183 181 190 193 194 200 204 209 201 182 168 162 152 135 8 358 354 352 346 339 332 329 325 328 330
164 202 159 123 117 169 190 151 161 178 189 187 192 186 171 160 204 200 185 181 192 200 202 199 191 185 191 191 184 185 189 198 193 193 194 188 180 169 160 151 137 121 51 16 6 359 354 349 347 342 333 334 336 334
79 86 94 109 130 176 189 176 192 193 188 215 208 205 204 196 187 209 189 183 177 185 187 185 188 188 186 186 184 186 186 183 178 170 167 161 157 153 146 139 120 78 37 17 2 357 354 348 342 340 341 338 336 334